Regional Weather Roundup
Issued by NWS Little Rock, AR

Home | Current Version | Previous Version | Text Only | Print | Product List | Glossary On
Versions: 1 2 3 4 5 6 7 8 9 10 11 12 13 14 15 16 17 18 19 20 21 22 23 24 25 26 27 28 29 30 31
000
ASUS44 KLZK 231505
RWRLZK

WEATHER ROUNDUP FOR ARKANSAS
NATIONAL WEATHER SERVICE LITTLE ROCK AR
1000 AM CDT FRI JUN 23 2017

NOTE: "FAIR" INDICATES FEW OR NO CLOUDS BELOW 12,000 FEET WITH NO
SIGNIFICANT WEATHER AND/OR OBSTRUCTIONS TO VISIBILITY.

ARZ001-003-010-029-231600-
NORTHWEST ARKANSAS

CITY           SKY/WX    TMP DP  RH WIND       PRES   REMARKS
FAYETTEVILLE   CLOUDY    79  74  84 W5        29.83R
FORT SMITH     PTSUNNY   80  75  84 W8        29.80R HX  85
HARRISON       PTSUNNY   79  73  82 NW8       29.80R
BENTONVILLE    CLOUDY    79  72  78 CALM      29.83R
ROGERS         CLOUDY    79  74  84 W8        29.83R
SILOAM SPGS    PTSUNNY   81  72  74 W12       29.82R
HIGHFILL       CLOUDY    81  74  79 W6        29.83R HX  86
SPRINGDALE     CLOUDY    79  75  89 W7        29.84R
$$

ARZ004-005-016-231600-
NORTH CENTRAL ARKANSAS

CITY           SKY/WX    TMP DP  RH WIND       PRES   REMARKS
BATESVILLE     CLOUDY    77  75  94 W6        29.73R
FLIPPIN        MOSUNNY  N/A N/A N/A W5        29.73R
MTN HOME       CLOUDY    77  73  87 VRB5      29.76R
$$

ARZ040-041-231600-
WEST CENTRAL ARKANSAS

CITY           SKY/WX    TMP DP  RH WIND       PRES   REMARKS
MENA           PTSUNNY   82  81  94 W8        29.85R HX  95
MOUNT IDA      PTSUNNY   84  74  71 VRB6      29.79R HX  91
$$

ARZ009-017-025-026-028-231600-
NORTHEAST ARKANSAS

CITY           SKY/WX    TMP DP  RH WIND       PRES   REMARKS
CORNING        PTSUNNY   77  77 100 N12       29.69R
JONESBORO      CLOUDY    76  75  97 NW6       29.66R
WALNUT RIDGE   CLOUDY    77  73  88 N9        29.68R
BLYTHEVILLE    LGT RAIN  76  75  97 W7        29.62R
$$

ARZ022-023-033-042-044-231600-
CENTRAL ARKANSAS

CITY           SKY/WX    TMP DP  RH WIND       PRES   REMARKS
LITTLE ROCK    CLOUDY    82  77  84 W13       29.77R HX  90
N LITTLE ROCK    N/A     78  75  89 W7        29.77R
JACKSONVILLE   PTSUNNY   82  76  83 W12       29.75R HX  89
CONWAY           N/A     82  75  78 W13G18    29.75R HX  89
SEARCY         CLOUDY    79  77  94 W5        29.75R
HOT SPRINGS    MOSUNNY   83  76  79 W7        29.80R HX  91
RUSSELLVILLE   CLOUDY    82  75  79 W14       29.77S HX  89
CLINTON        FAIR      82  73  74 NW8       29.75R HX  88
$$

ARZ036-231600-
EAST ARKANSAS

CITY           SKY/WX    TMP DP  RH WIND       PRES   REMARKS
WEST MEMPHIS   LGT RAIN  75  75 100 W12G22    29.68R
$$

ARZ050-053-066-070-073-231600-
SOUTHWEST ARKANSAS

CITY           SKY/WX    TMP DP  RH WIND       PRES   REMARKS
ARKADELPHIA    PTSUNNY   83  78  85 W8        29.80R HX  93
CAMDEN         CLOUDY    79  73  83 SW6       29.81R
TEXARKANA      PTSUNNY   85  76  74 SW13      29.81R HX  94
EL DORADO      CLOUDY    76  75  97 SW8       29.83S
DE QUEEN       MOSUNNY   83  78  85 W7        29.80R HX  93
$$

ARZ056-057-069-231600-
SOUTHEAST ARKANSAS

CITY           SKY/WX    TMP DP  RH WIND       PRES   REMARKS
PINE BLUFF     CLOUDY    77  74  90 S13       29.79R
STUTTGART      CLOUDY    79  66  65 SW14      29.77R
MONTICELLO     CLOUDY    75  72  90 SW14G23   29.82R

$$






USA.gov is the U.S. government's official web portal to all federal, state and local government web resources and services.